User: anonymous   Login
Location: Kaiser
(34.0939°N, 117.4889°W)
Time: 02:24:29
(UTC+00:00)
Language:

Cosmos 1726 Rocket - Orbit

View from above orbital plane
View from above orbital plane
View from above satellite
View from above satellite

Ground track
Ground track

The orbit data is extracted from the following two-line orbital elements,

1 16496U 86006B   21018.63533159  .00000065  00000-0  47783-5 0  9998
2 16496  82.5235 220.4377 0020609  62.8994 358.5217 14.84165703891865
Epoch (UTC): 18 January 2021 15:14:52
Eccentricity: 0.0020609
inclination: 82.5235°
perigee height: 602 km
apogee height: 630 km
right ascension of ascending node: 220.4377°
argument of perigee: 62.8994°
revolutions per day: 14.84165703
mean anomaly at epoch: 358.5217°
orbit number at epoch: 89186

The dashed part of the orbit path shows where the satellite is in the earth's shadow,  

DLR